Location: Unspecified
(0.0000°N, 0.0000°E)
Time: 11:40:32
(UTC+00:00)

ISS - Pass Details

Date: 20 August 2017
Orbit: 401 x 408 km, 51.6° (Epoch: 23 August)

Event Time Altitude Azimuth Distance (km) Brightness Sun altitude
Rises 19:35:11 0° 306° (NW) 2,295 1.1 -22.4°
Reaches altitude 10° 19:37:27 10° 292° (WNW) 1,441 0.0 -23.0°
Maximum altitude 19:40:12 25° 234° (SW) 844 -1.9 -23.6°
Enters shadow 19:40:22 25° 228° (SW) 848 -1.9 -23.7°
